Time,TemperatureF,DewpointF,PressureIn,WindDirection,WindDirectionDegrees,WindSpeedMPH,WindSpeedGustMPH,Humidity,HourlyPrecipIn,Conditions,Clouds,dailyrainin,SoftwareType,DateUTC
2013-10-05 00:00:00,68.4,38.0,29.87,ENE,68,2.2,2.2,33,0.00,,,0.00,WUHU216HW,2013-10-05 07:00:00,
2013-10-05 00:05:00,68.4,38.0,29.87,ENE,68,1.1,2.2,33,0.00,,,0.00,WUHU216HW,2013-10-05 07:05:00,
2013-10-05 00:10:00,68.4,38.0,29.87,ENE,68,1.1,2.2,33,0.00,,,0.00,WUHU216HW,2013-10-05 07:10:00,
2013-10-05 00:30:00,68.6,38.2,29.86,NE,45,0.0,0.0,33,0.00,,,0.00,WUHU216HW,2013-10-05 07:30:00,
2013-10-05 01:00:00,63.2,36.3,29.87,SE,135,2.0,2.0,37,0.00,,,0.00,WUHU216HW,2013-10-05 08:00:00,
2013-10-05 01:05:00,63.2,36.3,29.87,SE,135,1.8,2.0,37,0.00,,,0.00,WUHU216HW,2013-10-05 08:05:00,
2013-10-05 01:10:00,63.2,36.3,29.87,SE,135,1.8,2.0,37,0.00,,,0.00,WUHU216HW,2013-10-05 08:10:00,
2013-10-05 01:30:00,63.0,36.9,29.87,ENE,68,2.0,2.0,38,0.00,,,0.00,WUHU216HW,2013-10-05 08:30:00,
2013-10-05 01:35:00,63.0,36.9,29.87,ENE,68,2.0,2.0,38,0.00,,,0.00,WUHU216HW,2013-10-05 08:35:00,
2013-10-05 01:40:00,63.0,36.9,29.87,ENE,68,2.0,2.0,38,0.00,,,0.00,WUHU216HW,2013-10-05 08:40:00,
2013-10-05 02:00:00,64.8,36.4,29.88,NE,45,4.0,4.0,35,0.00,,,0.00,WUHU216HW,2013-10-05 09:00:00,
2013-10-05 02:05:00,64.8,36.4,29.88,ENE,68,2.7,4.0,35,0.00,,,0.00,WUHU216HW,2013-10-05 09:05:00,
2013-10-05 02:10:00,64.8,36.4,29.88,ENE,68,2.7,2.7,35,0.00,,,0.00,WUHU216HW,2013-10-05 09:10:00,
2013-10-05 02:30:00,64.8,37.1,29.88,North,0,0.2,0.2,36,0.00,,,0.00,WUHU216HW,2013-10-05 09:30:00,
2013-10-05 02:35:00,64.8,37.1,29.88,ENE,68,0.4,0.4,36,0.00,,,0.00,WUHU216HW,2013-10-05 09:35:00,
2013-10-05 02:40:00,64.8,37.1,29.88,ENE,68,0.4,0.4,36,0.00,,,0.00,WUHU216HW,2013-10-05 09:40:00,
2013-10-05 03:00:00,62.5,36.4,29.88,NE,45,1.1,1.1,38,0.00,,,0.00,WUHU216HW,2013-10-05 10:00:00,
2013-10-05 03:05:00,62.5,36.4,29.88,NE,45,2.2,2.2,38,0.00,,,0.00,WUHU216HW,2013-10-05 10:05:00,
2013-10-05 03:10:00,62.5,36.4,29.88,NE,45,2.2,2.2,38,0.00,,,0.00,WUHU216HW,2013-10-05 10:10:00,
2013-10-05 03:30:00,63.9,36.3,29.88,ENE,68,3.8,3.8,36,0.00,,,0.00,WUHU216HW,2013-10-05 10:30:00,
2013-10-05 03:35:00,64.1,35.6,29.88,ENE,68,4.0,4.0,35,0.00,,,0.00,WUHU216HW,2013-10-05 10:35:00,
2013-10-05 03:40:00,64.1,35.6,29.88,ENE,68,4.0,4.0,35,0.00,,,0.00,WUHU216HW,2013-10-05 10:40:00,
2013-10-05 04:00:00,61.9,35.2,29.88,ENE,68,3.1,3.1,37,0.00,,,0.00,WUHU216HW,2013-10-05 11:00:00,
2013-10-05 04:05:00,61.7,35.0,29.88,East,90,2.9,3.1,37,0.00,,,0.00,WUHU216HW,2013-10-05 11:05:00,
2013-10-05 04:10:00,61.7,35.0,29.88,East,90,2.9,3.1,37,0.00,,,0.00,WUHU216HW,2013-10-05 11:10:00,
2013-10-05 04:30:00,62.1,35.4,29.88,East,90,3.4,3.4,37,0.00,,,0.00,WUHU216HW,2013-10-05 11:30:00,
2013-10-05 04:35:00,62.1,35.4,29.88,East,90,4.3,4.3,37,0.00,,,0.00,WUHU216HW,2013-10-05 11:35:00,
2013-10-05 04:40:00,62.1,35.4,29.88,East,90,4.3,4.3,37,0.00,,,0.00,WUHU216HW,2013-10-05 11:40:00,
2013-10-05 05:00:00,62.6,32.9,29.88,NE,45,4.3,4.3,33,0.00,,,0.00,WUHU216HW,2013-10-05 12:00:00,
2013-10-05 05:05:00,62.6,32.9,29.88,ENE,68,4.0,4.3,33,0.00,,,0.00,WUHU216HW,2013-10-05 12:05:00,
2013-10-05 05:10:00,62.6,32.9,29.88,ENE,68,4.0,4.0,33,0.00,,,0.00,WUHU216HW,2013-10-05 12:10:00,
2013-10-05 05:30:00,62.3,32.6,29.88,ESE,113,1.6,1.6,33,0.00,,,0.00,WUHU216HW,2013-10-05 12:30:00,
2013-10-05 05:35:00,62.3,33.3,29.88,ESE,113,1.8,1.8,34,0.00,,,0.00,WUHU216HW,2013-10-05 12:35:00,
2013-10-05 05:40:00,62.3,33.3,29.88,ESE,113,1.8,1.8,34,0.00,,,0.00,WUHU216HW,2013-10-05 12:40:00,
2013-10-05 06:00:00,60.7,31.9,29.89,ESE,113,7.2,7.2,34,0.00,,,0.00,WUHU216HW,2013-10-05 13:00:00,
2013-10-05 06:05:00,60.7,31.9,29.89,ESE,113,7.6,7.6,34,0.00,,,0.00,WUHU216HW,2013-10-05 13:05:00,
2013-10-05 06:10:00,60.7,31.9,29.89,ESE,113,7.6,7.6,34,0.00,,,0.00,WUHU216HW,2013-10-05 13:10:00,
2013-10-05 06:30:00,60.1,30.7,29.89,East,90,6.5,6.5,33,0.00,,,0.00,WUHU216HW,2013-10-05 13:30:00,
2013-10-05 06:35:00,60.1,30.7,29.89,East,90,5.4,6.5,33,0.00,,,0.00,WUHU216HW,2013-10-05 13:35:00,
2013-10-05 06:40:00,60.1,30.7,29.89,East,90,5.4,6.5,33,0.00,,,0.00,WUHU216HW,2013-10-05 13:40:00,
2013-10-05 07:00:00,59.8,30.4,29.90,East,90,6.9,6.9,33,0.00,,,0.00,WUHU216HW,2013-10-05 14:00:00,
2013-10-05 07:05:00,59.8,30.4,29.90,East,90,6.9,6.9,33,0.00,,,0.00,WUHU216HW,2013-10-05 14:05:00,
2013-10-05 07:10:00,59.8,30.4,29.90,East,90,6.9,6.9,33,0.00,,,0.00,WUHU216HW,2013-10-05 14:10:00,
2013-10-05 07:30:00,58.7,30.9,29.92,East,90,4.7,4.7,35,0.00,,,0.00,WUHU216HW,2013-10-05 14:30:00,
2013-10-05 07:35:00,58.7,30.9,29.92,East,90,4.3,4.7,35,0.00,,,0.00,WUHU216HW,2013-10-05 14:35:00,
2013-10-05 07:40:00,58.7,30.9,29.92,East,90,4.3,4.3,35,0.00,,,0.00,WUHU216HW,2013-10-05 14:40:00,
2013-10-05 08:00:00,58.7,32.3,29.92,East,90,3.1,3.1,37,0.00,,,0.00,WUHU216HW,2013-10-05 15:00:00,
2013-10-05 08:05:00,58.7,32.3,29.92,East,90,3.8,3.8,37,0.00,,,0.00,WUHU216HW,2013-10-05 15:05:00,
2013-10-05 08:10:00,58.7,32.3,29.92,East,90,3.8,3.8,37,0.00,,,0.00,WUHU216HW,2013-10-05 15:10:00,
2013-10-05 08:30:00,60.5,33.9,29.93,East,90,5.1,5.1,37,0.00,,,0.00,WUHU216HW,2013-10-05 15:30:00,
2013-10-05 08:35:00,60.5,33.9,29.93,ESE,113,4.3,5.1,37,0.00,,,0.00,WUHU216HW,2013-10-05 15:35:00,
2013-10-05 08:40:00,60.5,33.9,29.93,ESE,113,4.3,4.3,37,0.00,,,0.00,WUHU216HW,2013-10-05 15:40:00,
2013-10-05 09:00:00,62.6,35.8,29.93,SE,135,4.9,4.9,37,0.00,,,0.00,WUHU216HW,2013-10-05 16:00:00,
2013-10-05 09:05:00,62.6,35.8,29.93,SE,135,5.1,5.1,37,0.00,,,0.00,WUHU216HW,2013-10-05 16:05:00,
2013-10-05 09:10:00,62.6,35.8,29.93,SE,135,5.1,5.1,37,0.00,,,0.00,WUHU216HW,2013-10-05 16:10:00,
2013-10-05 09:30:00,66.1,38.2,29.95,SE,135,3.4,3.4,36,0.00,,,0.00,WUHU216HW,2013-10-05 16:30:00,
2013-10-05 09:35:00,66.1,38.2,29.95,SE,135,3.4,3.4,36,0.00,,,0.00,WUHU216HW,2013-10-05 16:35:00,
2013-10-05 09:40:00,66.1,38.2,29.95,SE,135,3.4,3.4,36,0.00,,,0.00,WUHU216HW,2013-10-05 16:40:00,
2013-10-05 10:00:00,69.3,39.5,29.95,SSE,158,0.9,0.9,34,0.00,,,0.00,WUHU216HW,2013-10-05 17:00:00,
2013-10-05 10:05:00,69.3,39.5,29.95,SSE,158,0.9,0.9,34,0.00,,,0.00,WUHU216HW,2013-10-05 17:05:00,
2013-10-05 10:10:00,69.3,39.5,29.95,SSE,158,0.9,0.9,34,0.00,,,0.00,WUHU216HW,2013-10-05 17:10:00,
2013-10-05 10:30:00,75.6,42.8,29.95,SSE,158,3.8,3.8,31,0.00,,,0.00,WUHU216HW,2013-10-05 17:30:00,
2013-10-05 10:35:00,75.8,43.0,29.95,SE,135,3.8,3.8,31,0.00,,,0.00,WUHU216HW,2013-10-05 17:35:00,
2013-10-05 10:40:00,75.8,43.0,29.95,SE,135,3.8,3.8,31,0.00,,,0.00,WUHU216HW,2013-10-05 17:40:00,
2013-10-05 11:00:00,79.2,38.9,29.94,SE,135,7.6,7.6,24,0.00,,,0.00,WUHU216HW,2013-10-05 18:00:00,
2013-10-05 11:05:00,79.4,38.0,29.94,ESE,113,7.6,7.6,23,0.00,,,0.00,WUHU216HW,2013-10-05 18:05:00,
2013-10-05 11:10:00,79.4,38.0,29.94,ESE,113,7.6,7.6,23,0.00,,,0.00,WUHU216HW,2013-10-05 18:10:00,
2013-10-05 11:30:00,82.1,35.5,29.94,SE,135,10.7,10.7,19,0.00,,,0.00,WUHU216HW,2013-10-05 18:30:00,
2013-10-05 11:35:00,82.1,35.5,29.94,SE,135,12.1,12.1,19,0.00,,,0.00,WUHU216HW,2013-10-05 18:35:00,
2013-10-05 11:40:00,82.1,35.5,29.94,SE,135,12.1,12.1,19,0.00,,,0.00,WUHU216HW,2013-10-05 18:40:00,
2013-10-05 12:00:00,83.7,33.3,29.93,SSE,158,12.3,12.3,17,0.00,,,0.00,WUHU216HW,2013-10-05 19:00:00,
2013-10-05 12:05:00,83.9,33.5,29.93,SE,135,11.9,12.3,17,0.00,,,0.00,WUHU216HW,2013-10-05 19:05:00,
2013-10-05 12:10:00,83.9,33.5,29.93,SE,135,11.9,12.1,17,0.00,,,0.00,WUHU216HW,2013-10-05 19:10:00,
2013-10-05 12:30:00,86.0,31.8,29.93,SE,135,9.2,9.2,15,0.00,,,0.00,WUHU216HW,2013-10-05 19:30:00,
2013-10-05 12:35:00,86.0,31.8,29.93,SE,135,9.2,9.2,15,0.00,,,0.00,WUHU216HW,2013-10-05 19:35:00,
2013-10-05 12:40:00,86.0,31.8,29.93,SE,135,9.2,9.2,15,0.00,,,0.00,WUHU216HW,2013-10-05 19:40:00,
2013-10-05 13:00:00,87.8,33.3,29.92,SE,135,9.2,9.2,15,0.00,,,0.00,WUHU216HW,2013-10-05 20:00:00,
2013-10-05 13:05:00,87.8,33.3,29.92,ESE,113,6.9,9.2,15,0.00,,,0.00,WUHU216HW,2013-10-05 20:05:00,
2013-10-05 13:10:00,87.8,33.3,29.92,ESE,113,6.9,9.2,15,0.00,,,0.00,WUHU216HW,2013-10-05 20:10:00,
2013-10-05 13:30:00,89.3,34.4,29.91,SE,135,1.3,1.3,15,0.00,,,0.00,WUHU216HW,2013-10-05 20:30:00,
2013-10-05 13:35:00,89.3,34.4,29.91,SE,135,1.1,1.3,15,0.00,,,0.00,WUHU216HW,2013-10-05 20:35:00,
2013-10-05 13:40:00,89.3,34.4,29.91,SE,135,1.1,1.3,15,0.00,,,0.00,WUHU216HW,2013-10-05 20:40:00,
2013-10-05 14:00:00,92.5,28.1,29.89,NW,315,4.7,4.7,10,0.00,,,0.00,WUHU216HW,2013-10-05 21:00:00,
2013-10-05 14:05:00,92.5,29.9,29.89,WNW,293,2.7,4.7,11,0.00,,,0.00,WUHU216HW,2013-10-05 21:05:00,
2013-10-05 14:10:00,92.5,29.9,29.89,WNW,293,2.7,4.0,11,0.00,,,0.00,WUHU216HW,2013-10-05 21:10:00,
2013-10-05 14:30:00,91.4,30.9,29.89,West,270,7.6,7.6,12,0.00,,,0.00,WUHU216HW,2013-10-05 21:30:00,
2013-10-05 14:35:00,91.4,30.9,29.89,NW,315,8.5,9.2,12,0.00,,,0.00,WUHU216HW,2013-10-05 21:35:00,
2013-10-05 14:40:00,91.3,29.0,29.88,WSW,248,6.7,13.9,11,0.00,,,0.00,WUHU216HW,2013-10-05 21:40:00,
2013-10-05 14:45:00,90.4,26.5,29.88,NW,315,10.5,13.9,10,0.00,,,0.00,WUHU216HW,2013-10-05 21:45:00,
2013-10-05 14:50:00,89.6,25.9,29.88,NW,315,9.6,13.4,10,0.00,,,0.00,WUHU216HW,2013-10-05 21:50:00,
2013-10-05 14:55:00,89.6,27.6,29.88,West,270,10.5,13.4,11,0.00,,,0.00,WUHU216HW,2013-10-05 21:55:00,
2013-10-05 15:00:00,89.8,27.8,29.88,WNW,293,15.0,15.0,11,0.00,,,0.00,WUHU216HW,2013-10-05 22:00:00,
2013-10-05 15:05:00,89.8,27.8,29.88,WNW,293,15.0,15.0,11,0.00,,,0.00,WUHU216HW,2013-10-05 22:05:00,
2013-10-05 15:30:00,88.6,26.9,29.88,WNW,293,13.4,13.4,11,0.00,,,0.00,WUHU216HW,2013-10-05 22:30:00,
2013-10-05 15:35:00,88.6,26.9,29.88,WNW,293,10.7,13.4,11,0.00,,,0.00,WUHU216HW,2013-10-05 22:35:00,
2013-10-05 15:40:00,88.6,26.9,29.88,WNW,293,10.7,12.8,11,0.00,,,0.00,WUHU216HW,2013-10-05 22:40:00,
2013-10-05 16:00:00,87.1,27.6,29.88,NW,315,9.4,9.4,12,0.00,,,0.00,WUHU216HW,2013-10-05 23:00:00,
2013-10-05 16:05:00,87.1,27.6,29.88,NW,315,7.8,9.4,12,0.00,,,0.00,WUHU216HW,2013-10-05 23:05:00,
2013-10-05 16:10:00,87.1,27.6,29.88,NW,315,7.8,7.8,12,0.00,,,0.00,WUHU216HW,2013-10-05 23:10:00,
2013-10-05 16:30:00,85.9,28.2,29.88,West,270,10.3,10.3,13,0.00,,,0.00,WUHU216HW,2013-10-05 23:30:00,
2013-10-05 16:35:00,85.9,28.2,29.87,WNW,293,10.3,10.3,13,0.00,,,0.00,WUHU216HW,2013-10-05 23:35:00,
2013-10-05 16:40:00,85.9,28.2,29.87,WNW,293,10.3,10.3,13,0.00,,,0.00,WUHU216HW,2013-10-05 23:40:00,
2013-10-05 17:00:00,84.2,30.3,29.87,WNW,293,9.8,9.8,15,0.00,,,0.00,WUHU216HW,2013-10-06 00:00:00,
2013-10-05 17:05:00,84.2,30.3,29.87,NW,315,9.4,9.8,15,0.00,,,0.00,WUHU216HW,2013-10-06 00:05:00,
2013-10-05 17:10:00,84.2,30.3,29.87,NW,315,9.4,9.4,15,0.00,,,0.00,WUHU216HW,2013-10-06 00:10:00,
2013-10-05 17:30:00,80.6,27.5,29.87,WNW,293,8.5,8.5,15,0.00,,,0.00,WUHU216HW,2013-10-06 00:30:00,
2013-10-05 17:35:00,80.6,27.5,29.87,WNW,293,9.6,9.6,15,0.00,,,0.00,WUHU216HW,2013-10-06 00:35:00,
2013-10-05 17:40:00,80.6,27.5,29.87,WNW,293,9.6,9.6,15,0.00,,,0.00,WUHU216HW,2013-10-06 00:40:00,
2013-10-05 18:00:00,78.1,30.5,29.87,NW,315,9.2,9.2,18,0.00,,,0.00,WUHU216HW,2013-10-06 01:00:00,
2013-10-05 18:05:00,77.9,30.3,29.87,WNW,293,9.4,9.4,18,0.00,,,0.00,WUHU216HW,2013-10-06 01:05:00,
2013-10-05 18:10:00,77.9,30.3,29.87,WNW,293,9.4,9.4,18,0.00,,,0.00,WUHU216HW,2013-10-06 01:10:00,
2013-10-05 18:30:00,77.4,34.3,29.88,WNW,293,2.5,2.5,21,0.00,,,0.00,WUHU216HW,2013-10-06 01:30:00,
2013-10-05 18:35:00,77.4,34.3,29.88,WNW,293,2.5,2.5,21,0.00,,,0.00,WUHU216HW,2013-10-06 01:35:00,
2013-10-05 18:40:00,77.4,34.3,29.88,WNW,293,2.5,2.5,21,0.00,,,0.00,WUHU216HW,2013-10-06 01:40:00,
2013-10-05 19:00:00,77.4,34.3,29.89,WNW,293,0.2,0.2,21,0.00,,,0.00,WUHU216HW,2013-10-06 02:00:00,
2013-10-05 19:05:00,77.4,34.3,29.89,WNW,293,0.0,0.2,21,0.00,,,0.00,WUHU216HW,2013-10-06 02:05:00,
2013-10-05 19:10:00,77.4,34.3,29.89,WNW,293,0.0,0.0,21,0.00,,,0.00,WUHU216HW,2013-10-06 02:10:00,
2013-10-05 19:30:00,74.0,34.6,29.89,East,90,2.5,2.5,24,0.00,,,0.00,WUHU216HW,2013-10-06 02:30:00,
2013-10-05 19:35:00,74.0,33.6,29.89,ENE,68,2.5,2.5,23,0.00,,,0.00,WUHU216HW,2013-10-06 02:35:00,
2013-10-05 19:40:00,74.0,33.6,29.89,ENE,68,2.5,2.5,23,0.00,,,0.00,WUHU216HW,2013-10-06 02:40:00,
2013-10-05 20:00:00,71.3,34.3,29.89,East,90,2.7,2.7,26,0.00,,,0.00,WUHU216HW,2013-10-06 03:00:00,
2013-10-05 20:05:00,71.1,34.1,29.89,East,90,3.6,3.6,26,0.00,,,0.00,WUHU216HW,2013-10-06 03:05:00,
2013-10-05 20:10:00,71.1,34.1,29.89,East,90,3.6,3.6,26,0.00,,,0.00,WUHU216HW,2013-10-06 03:10:00,
2013-10-05 20:30:00,68.6,33.9,29.89,East,90,2.9,2.9,28,0.00,,,0.00,WUHU216HW,2013-10-06 03:30:00,
2013-10-05 20:35:00,68.6,34.9,29.89,ENE,68,3.1,3.1,29,0.00,,,0.00,WUHU216HW,2013-10-06 03:35:00,
2013-10-05 20:40:00,68.6,34.9,29.89,ENE,68,3.1,3.1,29,0.00,,,0.00,WUHU216HW,2013-10-06 03:40:00,
2013-10-05 21:00:00,68.4,31.8,29.89,NE,45,1.6,1.6,26,0.00,,,0.00,WUHU216HW,2013-10-06 04:00:00,
2013-10-05 21:01:00,68.4,31.8,29.89,ENE,68,2.2,2.2,26,0.00,,,0.00,WUHU216HW,2013-10-06 04:01:00,
2013-10-05 21:06:00,68.4,31.8,29.89,ENE,68,2.2,2.2,26,0.00,,,0.00,WUHU216HW,2013-10-06 04:06:00,
2013-10-05 21:30:00,68.0,30.5,29.89,NE,45,1.1,1.1,25,0.00,,,0.00,WUHU216HW,2013-10-06 04:30:00,
2013-10-05 21:35:00,68.0,30.5,29.89,NE,45,1.3,1.3,25,0.00,,,0.00,WUHU216HW,2013-10-06 04:35:00,
2013-10-05 21:40:00,68.0,30.5,29.89,NE,45,1.3,1.3,25,0.00,,,0.00,WUHU216HW,2013-10-06 04:40:00,
2013-10-05 22:00:00,68.0,28.5,29.89,ENE,68,2.0,2.0,23,0.00,,,0.00,WUHU216HW,2013-10-06 05:00:00,
2013-10-05 22:05:00,68.0,28.5,29.89,ENE,68,2.7,2.7,23,0.00,,,0.00,WUHU216HW,2013-10-06 05:05:00,
2013-10-05 22:10:00,68.0,28.5,29.89,ENE,68,2.7,2.7,23,0.00,,,0.00,WUHU216HW,2013-10-06 05:10:00,
2013-10-05 22:30:00,67.3,27.9,29.89,ENE,68,2.7,2.7,23,0.00,,,0.00,WUHU216HW,2013-10-06 05:30:00,
2013-10-05 22:35:00,67.3,28.9,29.89,NE,45,2.0,2.7,24,0.00,,,0.00,WUHU216HW,2013-10-06 05:35:00,
2013-10-05 22:40:00,67.3,28.9,29.89,NE,45,2.0,2.0,24,0.00,,,0.00,WUHU216HW,2013-10-06 05:40:00,
2013-10-05 23:00:00,67.5,29.1,29.89,NE,45,0.7,0.7,24,0.00,,,0.00,WUHU216HW,2013-10-06 06:00:00,
2013-10-05 23:05:00,67.5,29.1,29.89,NE,45,0.7,0.7,24,0.00,,,0.00,WUHU216HW,2013-10-06 06:05:00,
2013-10-05 23:10:00,67.5,29.1,29.89,NE,45,0.7,0.7,24,0.00,,,0.00,WUHU216HW,2013-10-06 06:10:00,
2013-10-05 23:30:00,67.9,29.3,29.89,East,90,2.5,2.5,24,0.00,,,0.00,WUHU216HW,2013-10-06 06:30:00,
2013-10-05 23:35:00,67.9,29.3,29.89,East,90,2.2,2.5,24,0.00,,,0.00,WUHU216HW,2013-10-06 06:35:00,
2013-10-05 23:40:00,67.9,29.3,29.89,East,90,2.2,2.5,24,0.00,,,0.00,WUHU216HW,2013-10-06 06:40:00,